Regional Weather Roundup
Issued by NWS

Home | Current Version | Previous Version | Text Only | Print | Product List | Glossary On
Versions: 1 2 3 4 5 6 7 8 9 10 11 12 13 14 15 16 17 18 19 20 21 22 23 24 25 26 27 28 29 30 31 32 33 34 35 36 37 38 39 40 41 42 43 44 45 46 47 48 49 50
000
ASUS43 KBIS 181720
RWRND

NORTH DAKOTA REGIONAL WEATHER ROUNDUP
NATIONAL WEATHER SERVICE BISMARCK ND
1100 AM CST THU DEC 18 2014

NOTE: "FAIR" INDICATES FEW OR NO CLOUDS BELOW 12,000 FEET WITH NO
SIGNIFICANT WEATHER AND/OR OBSTRUCTIONS TO VISIBILITY.


NDZ001>003-009>011-017-181800-
NORTHWEST NORTH DAKOTA

CITY           SKY/WX    TMP DP  RH WIND       PRES   REMARKS
WILLISTON      CLOUDY    23  19  85 S7        30.00S WCI  15
MINOT          CLOUDY    20  15  81 SE6       30.05S WCI  12
MINOT AFB      CLOUDY    19  19 100 S7        30.05S WCI  10
$$

NDZ018>021-031>035-040>046-181800-
SOUTHWEST NORTH DAKOTA

CITY           SKY/WX    TMP DP  RH WIND       PRES   REMARKS
BISMARCK       CLOUDY    20  18  92 S10       30.09S WCI   9
DICKINSON      CLOUDY    26  22  84 S6        29.96R WCI  19
GARRISON         N/A     20  18  92 S9        30.04S WCI   9
HETTINGER ARPT CLOUDY    26  24  92 SW7       30.00R WCI  18
$$

NDZ004>008-012>016-024-026-027-054-181800-
NORTHEAST NORTH DAKOTA

CITY           SKY/WX    TMP DP  RH WIND       PRES   REMARKS
GRAND FORKS    CLOUDY    14  11  87 S8        30.24S WCI   3
GRND FRKS AFB  CLOUDY    16  16  99 S8        30.23S WCI   5
DEVILS LAKE    CLOUDY    18   9  68 S10       30.11F WCI   6
$$

NDZ022-023-025-028>030-036>039-047>053-181800-
SOUTHEAST NORTH DAKOTA

CITY           SKY/WX    TMP DP  RH WIND       PRES   REMARKS
FARGO          CLOUDY    16  11  80 S13       30.25S WCI   2
JAMESTOWN      CLOUDY    18  13  80 S12       30.14F WCI   5
$$




USA.gov is the U.S. government's official web portal to all federal, state and local government web resources and services.